Location: Ellingshausen
(50.5460°N, 10.4723°E)
Time: 23:21:35
(UTC+00:00)

Cosmos 1943 Rocket - Pass Details

Date: 18 January 2026
Orbit: 812 x 842 km, 71.0° (Epoch: 7 February)

Event Time Altitude Azimuth Distance (km) Brightness Sun altitude
Exits shadow 04:25:41 22° 193° (SSW) 1,726 3.7 -25.6°
Maximum altitude 04:29:18 69° 115° (ESE) 871 2.3 -25.0°
Drops below altitude 10° 04:34:46 10° 33° (NNE) 2,411 4.9 -24.1°
Sets 04:37:13 0° 31° (NNE) 3,349 5.7 -23.8°
